Tracking 19906 objects as of 24-Oct-2019
HD Live streaming from Space Station
objects crossing your sky now

DELTA 1 DEB

Track DELTA 1 DEB now!
10-day predictions


NORAD ID: 12217
Int'l Code: 1978-026BJ
Perigee: 819.1 km
Apogee: 848.8 km
Inclination: 98.8 °
Period: 101.4 minutes
Semi major axis: 7204 km
RCS: 0.0277 m2 (small)
Launch date: March 5, 1978
Source: United States (US)
Launch site: AIR FORCE WESTERN TEST RANGE (AFWTR)

Note: This is SATELLITE DEBRIS
aabbcc
Your satellite tracking list
Your tracking list is empty




NASA's NSSDC Master Catalog

Two Line Element Set (TLE):
1 12217U 78026BJ  19296.90308501 +.00000190 +00000-0 +11090-3 0  9993
2 12217 098.7947 262.6412 0020600 273.6413 144.6184 14.19559693995504
Source of the keplerian elements: AFSPC